"2001/01/01",1003.1,1007.9, 998.3
"2001/01/02",1003.1,1007.7, 998.6
"2001/01/03",1004.2,1006.5,1001.4
"2001/01/04",1008.5,1013.3,1006.1
"2001/01/05",1015.9,1019.5,1013.1
"2001/01/06",1023.6,1028.1,1019.3
"2001/01/07",1025.9,1029.4,1018.9
"2001/01/08",1012.4,1023.6,1003.2
"2001/01/09",1022.6,1026.4,1013.1
"2001/01/10",1006.5,1013.2,1003.3
"2001/01/11",1006.2,1009.8,1002.2
"2001/01/12",1007.0,1010.3,1003.9
"2001/01/13",1009.4,1013.7,1003.5
"2001/01/14",1005.1,1009.8,1000.4
"2001/01/15",1011.4,1015.7,1007.7
"2001/01/16",1015.6,1017.2,1013.6
"2001/01/17",1018.8,1021.6,1016.4
"2001/01/18",1018.2,1021.4,1013.1
"2001/01/19",1025.2,1027.5,1020.2
"2001/01/20",1019.0,1025.6,1007.9
"2001/01/21",1010.3,1015.5,1006.3
"2001/01/22",1017.9,1020.4,1015.0
"2001/01/23",1017.8,1020.2,1013.9
"2001/01/24",1024.1,1025.8,1019.9
"2001/01/25",1020.2,1025.0,1013.7
"2001/01/26",1013.0,1017.1,1009.3
"2001/01/27",1005.7,1015.5, 995.9
"2001/01/28",1006.6,1009.4,1002.6
"2001/01/29",1012.4,1017.6,1005.4
"2001/01/30",1016.5,1018.2,1013.7
"2001/01/31",1019.9,1022.8,1016.1
"2001/02/01",1007.9,1016.8,1001.8
"2001/02/02",1010.6,1014.3,1005.1
"2001/02/03",1017.2,1022.0,1013.8
"2001/02/04",1024.4,1026.3,1021.6
"2001/02/05",1022.0,1025.0,1017.9
"2001/02/06",1014.0,1017.9,1011.3
"2001/02/07",1015.2,1018.0,1011.0
"2001/02/08",1012.8,1019.4,1008.0
"2001/02/09",1020.5,1022.6,1019.1
"2001/02/10",1019.7,1022.7,1016.9
"2001/02/11",1022.9,1024.9,1019.9
"2001/02/12",1024.2,1027.3,1020.4
"2001/02/13",1016.0,1020.7,1011.5
"2001/02/14",1012.2,1017.0,1009.8
"2001/02/15",1018.8,1020.6,1016.8
"2001/02/16",1013.0,1021.6,1007.1
"2001/02/17",1022.8,1026.2,1019.1
"2001/02/18",1014.2,1019.4,1010.4
"2001/02/19",1013.1,1017.7,1010.3
"2001/02/20",1020.6,1022.7,1017.6
"2001/02/21",1015.5,1022.0,1008.7
"2001/02/22",1013.2,1015.3,1008.8
"2001/02/23",1011.7,1014.1,1008.6
"2001/02/24",1005.1,1008.8,1002.0
"2001/02/25",1012.6,1020.3,1005.7
"2001/02/26",1024.8,1028.2,1020.2
"2001/02/27",1027.1,1029.9,1023.5
"2001/02/28",1014.8,1023.6,1009.8
"2001/03/01",1007.2,1010.0,1005.2
"2001/03/02",1010.7,1021.1,1003.5
"2001/03/03",1022.0,1025.3,1017.0
"2001/03/04",1000.6,1017.0, 990.9
"2001/03/05",1000.4,1008.0, 992.7
"2001/03/06",1010.9,1013.6,1007.9
"2001/03/07",1002.2,1008.1, 996.3
"2001/03/08",1004.7,1008.6,1000.1
"2001/03/09",1008.9,1014.9,1003.2
"2001/03/10",1012.2,1016.2,1007.5
"2001/03/11",1016.5,1018.6,1011.7
"2001/03/12",1014.2,1017.6,1008.0
"2001/03/13",1016.8,1025.0,1006.8
"2001/03/14",1021.5,1025.3,1015.0
"2001/03/15",1008.0,1015.2,1002.7
"2001/03/16",1016.9,1019.5,1012.1
"2001/03/17",1013.6,1017.9,1004.8
"2001/03/18",1001.9,1008.6, 997.1
"2001/03/19",1009.6,1012.0,1008.1
"2001/03/20",1005.8,1009.4,1001.7
"2001/03/21",1005.6,1011.0,1001.9
"2001/03/22",1009.7,1012.2,1007.2
"2001/03/23",1013.4,1018.0,1007.7
"2001/03/24",1016.8,1019.1,1015.1
"2001/03/25",1009.9,1015.6,1003.3
"2001/03/26", 999.8,1006.5, 995.5
"2001/03/27",1010.4,1015.5,1006.4
"2001/03/28",1010.5,1015.1,1005.0
"2001/03/29",1003.9,1008.3, 998.1
"2001/03/30",1005.6,1013.6, 999.2
"2001/03/31",1012.2,1014.8,1009.3
"2001/04/01",1015.9,1018.3,1014.3
"2001/04/02",1015.7,1018.8,1011.0
"2001/04/03",1008.2,1012.5,1004.0
"2001/04/04",1014.6,1020.4,1011.0
"2001/04/05",1018.9,1021.1,1016.7
"2001/04/06",1020.2,1021.9,1017.2
"2001/04/07",1020.5,1022.2,1018.6
"2001/04/08",1021.4,1022.7,1019.5
"2001/04/09",1019.9,1022.0,1017.7
"2001/04/10",1017.3,1018.9,1015.4
"2001/04/11",1008.4,1015.4,1003.1
"2001/04/12", 998.1,1003.2, 992.6
"2001/04/13",1009.6,1015.9,1001.6
"2001/04/14",1013.6,1017.6,1009.3
"2001/04/15",1011.7,1015.0,1008.3
"2001/04/16",1017.8,1019.8,1014.9
"2001/04/17",1018.2,1020.0,1016.1
"2001/04/18",1015.1,1018.2,1011.0
"2001/04/19",1005.1,1011.0,1001.3
"2001/04/20",1006.9,1013.7,1003.5
"2001/04/21",1014.2,1017.4,1010.0
"2001/04/22",1008.4,1015.7,1005.1
"2001/04/23",1016.7,1019.8,1014.6
"2001/04/24",1012.3,1015.0,1010.3
"2001/04/25",1011.4,1012.7,1010.3
"2001/04/26",1015.6,1019.5,1011.9
"2001/04/27",1019.8,1022.0,1018.0
"2001/04/28",1021.3,1022.5,1019.9
"2001/04/29",1020.1,1022.2,1017.9
"2001/04/30",1013.6,1018.6,1010.5
"2001/05/01",1016.3,1018.9,1013.5
"2001/05/02",1015.5,1017.4,1012.8
"2001/05/03",1014.2,1017.5,1011.5
"2001/05/04",1019.1,1021.6,1016.8
"2001/05/05",1021.3,1022.4,1019.7
"2001/05/06",1020.6,1022.9,1018.0
"2001/05/07",1014.7,1018.7,1011.3
"2001/05/08",1006.8,1011.3,1002.7
"2001/05/09",1001.2,1003.3, 999.6
"2001/05/10",1005.3,1008.1,1002.4
"2001/05/11",1008.7,1011.2,1006.1
"2001/05/12",1013.8,1015.7,1011.0
"2001/05/13",1016.8,1018.7,1015.2
"2001/05/14",1018.2,1020.1,1016.7
"2001/05/15",1014.4,1016.9,1011.7
"2001/05/16",1007.4,1011.9,1003.8
"2001/05/17",1010.7,1014.3,1006.8
"2001/05/18",1012.4,1014.4,1009.8
"2001/05/19",1009.2,1010.7,1005.0
"2001/05/20",1010.0,1011.8,1007.6
"2001/05/21",1011.4,1013.2,1009.9
"2001/05/22",1011.7,1013.4,1009.8
"2001/05/23",1005.8,1010.0,1000.3
"2001/05/24", 998.6,1001.9, 996.4
"2001/05/25",1005.2,1009.0,1001.8
"2001/05/26",1006.3,1008.6,1003.7
"2001/05/27",1004.8,1006.3,1003.4
"2001/05/28",1008.3,1013.4,1004.4
"2001/05/29",1015.1,1017.3,1012.8
"2001/05/30",1015.1,1017.3,1010.2
"2001/05/31",1000.8,1010.2, 996.6
"2001/06/01",1004.7,1007.7, 999.3
"2001/06/02",1009.6,1012.2,1007.1
"2001/06/03",1009.4,1012.7,1006.1
"2001/06/04",1007.5,1010.8,1005.6
"2001/06/05",1011.9,1013.3,1010.5
"2001/06/06",1008.7,1011.6,1004.5
"2001/06/07",1004.9,1007.9,1003.0
"2001/06/08",1009.8,1011.9,1007.2
"2001/06/09",1012.3,1013.1,1011.5
"2001/06/10",1008.8,1011.8,1005.9
"2001/06/11",1005.2,1007.5,1003.2
"2001/06/12",1008.4,1009.7,1007.3
"2001/06/13",1007.4,1008.8,1005.4
"2001/06/14",1004.7,1006.1,1003.3
"2001/06/15",1004.9,1008.4,1002.3
"2001/06/16",1011.3,1013.3,1008.2
"2001/06/17",1012.0,1013.2,1010.8
"2001/06/18",1009.4,1011.9,1006.7
"2001/06/19",1002.1,1006.9, 998.0
"2001/06/20",1000.4,1007.1, 996.6
"2001/06/21",1009.8,1011.1,1007.0
"2001/06/22",1010.8,1013.0,1009.5
"2001/06/23",1013.8,1014.8,1012.4
"2001/06/24",1012.2,1014.2,1010.4
"2001/06/25",1006.7,1011.3,1002.8
"2001/06/26",1004.6,1005.8,1003.3
"2001/06/27",1002.0,1004.7, 998.8
"2001/06/28",1004.3,1005.8,1002.2
"2001/06/29",1004.3,1005.7,1002.6
"2001/06/30",1003.2,1005.6, 999.8
"2001/07/01",1002.6,1010.5, 999.0
"2001/07/02",1011.9,1013.4,1010.2
"2001/07/03",1009.4,1012.5,1006.6
"2001/07/04",1005.0,1007.0,1002.7
"2001/07/05",1006.2,1007.7,1004.5
"2001/07/06",1004.1,1007.4,1002.1
"2001/07/07",1009.6,1011.3,1007.0
"2001/07/08",1009.7,1011.0,1008.4
"2001/07/09",1010.1,1011.5,1009.1
"2001/07/10",1009.7,1011.2,1008.5
"2001/07/11",1005.8,1008.7,1003.3
"2001/07/12",1003.2,1004.3,1002.0
"2001/07/13",1006.1,1009.0,1003.4
"2001/07/14",1010.3,1011.9,1008.3
"2001/07/15",1009.7,1011.4,1007.3
"2001/07/16",1006.4,1008.7,1003.5
"2001/07/17",1004.3,1007.3,1002.6
"2001/07/18",1007.7,1010.5,1005.8
"2001/07/19",1009.6,1010.5,1008.4
"2001/07/20",1009.5,1010.6,1008.5
"2001/07/21",1011.9,1014.4,1010.3
"2001/07/22",1012.2,1014.0,1010.1
"2001/07/23",1009.1,1011.3,1006.9
"2001/07/24",1006.8,1008.1,1005.3
"2001/07/25",1007.9,1009.2,1006.6
"2001/07/26",1009.2,1010.4,1008.0
"2001/07/27",1010.6,1012.1,1009.4
"2001/07/28",1012.3,1013.9,1011.2
"2001/07/29",1013.7,1014.8,1012.5
"2001/07/30",1012.4,1014.4,1010.1
"2001/07/31",1010.0,1011.5,1007.9
"2001/08/01",1011.0,1014.1,1009.2
"2001/08/02",1016.7,1019.5,1013.6
"2001/08/03",1017.7,1019.6,1014.7
"2001/08/04",1012.2,1014.8,1009.0
"2001/08/05",1012.0,1013.0,1010.5
"2001/08/06",1010.2,1012.0,1008.8
"2001/08/07",1010.3,1012.0,1009.1
"2001/08/08",1011.7,1012.8,1010.8
"2001/08/09",1010.3,1011.9,1008.5
"2001/08/10",1009.5,1010.6,1007.9
"2001/08/11",1010.7,1012.5,1009.5
"2001/08/12",1014.0,1016.1,1011.8
"2001/08/13",1015.9,1016.9,1014.9
"2001/08/14",1016.2,1017.7,1014.6
"2001/08/15",1016.5,1017.9,1015.3
"2001/08/16",1013.3,1015.5,1011.5
"2001/08/17",1009.9,1012.5,1008.0
"2001/08/18",1011.6,1016.3,1007.8
"2001/08/19",1016.3,1017.7,1014.8
"2001/08/20",1012.7,1015.9,1008.6
"2001/08/21",1002.4,1008.7, 995.0
"2001/08/22", 989.7, 995.2, 983.9
"2001/08/23", 996.9,1002.3, 991.4
"2001/08/24",1005.5,1008.3,1001.9
"2001/08/25",1008.9,1009.9,1007.7
"2001/08/26",1008.1,1009.5,1006.3
"2001/08/27",1006.7,1007.6,1005.5
"2001/08/28",1007.0,1008.4,1005.6
"2001/08/29",1008.7,1010.0,1007.3
"2001/08/30",1008.4,1010.2,1005.9
"2001/08/31",1005.2,1006.5,1004.0
"2001/09/01",1007.7,1010.4,1005.6
"2001/09/02",1012.5,1015.4,1010.0
"2001/09/03",1014.6,1016.4,1012.6
"2001/09/04",1011.5,1013.6,1010.1
"2001/09/05",1014.2,1015.2,1013.1
"2001/09/06",1013.8,1014.7,1012.4
"2001/09/07",1012.2,1014.0,1010.5
"2001/09/08",1013.3,1014.5,1012.0
"2001/09/09",1012.2,1013.8,1009.3
"2001/09/10",1004.5,1009.3, 999.9
"2001/09/11", 994.3,1000.0, 983.3
"2001/09/12",1004.8,1009.8, 999.1
"2001/09/13",1012.6,1015.3,1009.3
"2001/09/14",1015.3,1016.4,1014.5
"2001/09/15",1012.2,1014.7,1008.4
"2001/09/16",1006.4,1008.4,1004.6
"2001/09/17",1006.9,1008.1,1005.5
"2001/09/18",1007.4,1009.0,1006.0
"2001/09/19",1012.5,1015.3,1008.7
"2001/09/20",1014.8,1016.1,1013.9
"2001/09/21",1015.0,1018.1,1013.7
"2001/09/22",1022.3,1025.0,1017.4
"2001/09/23",1024.3,1026.5,1021.8
"2001/09/24",1017.8,1021.9,1014.1
"2001/09/25",1012.2,1014.3,1010.0
"2001/09/26",1015.8,1018.7,1013.3
"2001/09/27",1016.8,1019.1,1013.9
"2001/09/28",1015.4,1019.9,1011.9
"2001/09/29",1022.5,1024.5,1019.7
"2001/09/30",1019.0,1022.2,1014.3
"2001/10/01",1005.2,1014.6, 998.5
"2001/10/02",1005.0,1011.9, 998.7
"2001/10/03",1016.3,1020.8,1011.7
"2001/10/04",1019.7,1021.3,1017.8
"2001/10/05",1015.2,1018.0,1012.8
"2001/10/06",1016.7,1019.9,1014.3
"2001/10/07",1021.7,1023.3,1019.3
"2001/10/08",1017.7,1021.9,1013.2
"2001/10/09",1014.9,1019.1,1011.6
"2001/10/10",1015.5,1018.5,1008.8
"2001/10/11",1009.8,1011.4,1008.1
"2001/10/12",1010.4,1012.2,1008.4
"2001/10/13",1010.4,1013.5,1008.2
"2001/10/14",1016.5,1019.4,1013.4
"2001/10/15",1022.8,1026.0,1019.2
"2001/10/16",1019.2,1025.4,1013.2
"2001/10/17",1010.6,1013.3,1008.7
"2001/10/18",1014.3,1017.6,1010.8
"2001/10/19",1023.0,1026.2,1017.4
"2001/10/20",1028.7,1030.4,1026.2
"2001/10/21",1026.9,1029.3,1024.5
"2001/10/22",1021.1,1024.6,1014.5
"2001/10/23",1012.2,1015.5,1009.8
"2001/10/24",1016.9,1018.6,1015.4
"2001/10/25",1020.1,1022.7,1018.2
"2001/10/26",1023.4,1024.9,1022.4
"2001/10/27",1022.5,1024.0,1021.0
"2001/10/28",1015.3,1021.5,1005.8
"2001/10/29",1009.7,1018.4,1003.4
"2001/10/30",1020.3,1022.5,1018.2
"2001/10/31",1020.2,1022.4,1018.6
"2001/11/01",1019.9,1022.7,1017.2
"2001/11/02",1018.8,1021.0,1016.6
"2001/11/03",1014.0,1020.5,1004.8
"2001/11/04",1018.6,1028.4,1007.0
"2001/11/05",1023.9,1028.7,1011.8
"2001/11/06",1005.8,1015.0,1000.3
"2001/11/07",1023.5,1027.9,1014.8
"2001/11/08",1024.9,1027.7,1020.7
"2001/11/09",1016.4,1020.9,1013.8
"2001/11/10",1015.0,1017.6,1012.7
"2001/11/11",1017.0,1019.5,1014.1
"2001/11/12",1009.8,1014.3,1006.9
"2001/11/13",1012.0,1013.9,1009.2
"2001/11/14",1012.2,1017.4,1009.5
"2001/11/15",1017.4,1020.0,1014.0
"2001/11/16",1014.6,1017.0,1012.3
"2001/11/17",1014.2,1016.7,1011.1
"2001/11/18",1017.8,1019.2,1016.2
"2001/11/19",1020.5,1023.0,1018.4
"2001/11/20",1022.5,1024.2,1021.5
"2001/11/21",1020.6,1022.3,1018.9
"2001/11/22",1020.1,1021.5,1018.4
"2001/11/23",1019.5,1021.4,1017.6
"2001/11/24",1016.0,1018.8,1012.3
"2001/11/25",1008.5,1012.4,1005.9
"2001/11/26",1008.6,1010.4,1006.4
"2001/11/27",1012.5,1015.2,1009.1
"2001/11/28",1014.9,1016.1,1013.3
"2001/11/29",1013.4,1015.9,1007.5
"2001/11/30",1004.4,1011.7,1000.2
"2001/12/01",1016.1,1018.5,1011.5
"2001/12/02",1019.0,1022.9,1016.1
"2001/12/03",1017.6,1022.2,1014.1
"2001/12/04",1015.9,1019.4,1012.8
"2001/12/05",1018.3,1021.3,1014.8
"2001/12/06",1011.2,1014.9,1007.9
"2001/12/07",1020.2,1025.4,1011.3
"2001/12/08",1024.1,1027.9,1022.1
"2001/12/09",1022.8,1024.8,1020.9
"2001/12/10",1020.7,1022.4,1018.2
"2001/12/11",1022.0,1024.2,1020.2
"2001/12/12",1026.3,1028.6,1024.1
"2001/12/13",1011.5,1025.1, 999.9
"2001/12/14",1006.9,1010.5,1003.1
"2001/12/15",1012.5,1018.1,1009.5
"2001/12/16",1021.8,1023.9,1017.8
"2001/12/17",1019.4,1023.0,1016.4
"2001/12/18",1022.2,1025.4,1017.8
"2001/12/19",1024.8,1026.8,1023.0
"2001/12/20",1024.9,1026.2,1023.5
"2001/12/21",1017.4,1025.1,1007.0
"2001/12/22",1008.2,1015.1,1004.8
"2001/12/23",1019.7,1023.5,1015.0
"2001/12/24",1020.4,1022.8,1018.3
"2001/12/25",1016.5,1020.2,1010.2
"2001/12/26",1015.0,1019.4,1010.3
"2001/12/27",1019.0,1021.5,1017.0
"2001/12/28",1016.3,1019.6,1013.4
"2001/12/29",1016.4,1020.6,1008.4
"2001/12/30",1004.0,1010.1, 999.6
"2001/12/31",1014.6,1017.2,1010.0
